| time (UTC) | temp F | wind direction | speed MPH | gust MPH | rain 1hr in | rain 24hr in | rain mn in | humidity % | barometer mb |
| 20260902154545 | 87 | 253 | 6.0 | 14.0 | 0.00 | 0.02 | 0.00 | 84 | 1013.6 |
| 20260902153044 | 86 | 265 | 3.0 | 12.0 | 0.00 | 0.02 | 0.00 | 85 | 1013.5 |
| 20260902151540 | 85 | 250 | 2.0 | 7.0 | 0.00 | 0.02 | 0.00 | 86 | 1013.3 |
| 20260902150032 | 84 | 233 | 2.0 | 9.0 | 0.00 | 0.02 | 0.00 | 86 | 1013.3 |
| 20260902144527 | 82 | 254 | 2.0 | 4.0 | 0.00 | 0.02 | 0.00 | 86 | 1013.3 |
| 20260902143023 | 82 | 244 | 1.0 | 4.0 | 0.00 | 0.02 | 0.00 | 87 | 1013.2 |
| 20260902141519 | 81 | 198 | 0.0 | 1.0 | 0.00 | 0.02 | 0.00 | 86 | 1013.3 |
| 20260902140017 | 80 | 182 | 0.0 | 2.0 | 0.00 | 0.02 | 0.00 | 86 | 1013.2 |
| 20260902134524 | 80 | 211 | 0.0 | 1.0 | 0.00 | 0.02 | 0.00 | 86 | 1013.2 |
| 20260902133011 | 80 | 240 | 0.0 | 2.0 | 0.00 | 0.02 | 0.00 | 86 | 1013.2 |
| 20260902131507 | 80 | 178 | 0.0 | 2.0 | 0.00 | 0.02 | 0.00 | 85 | 1013.0 |
| 20260902130004 | 80 | 154 | 0.0 | 3.0 | 0.00 | 0.02 | 0.00 | 85 | 1012.8 |
| 20260902124502 | 79 | 222 | 0.0 | 2.0 | 0.00 | 0.02 | 0.00 | 85 | 1012.7 |
| 20260902123103 | 79 | 168 | 0.0 | 3.0 | 0.00 | 0.02 | 0.00 | 85 | 1012.6 |
| 20260902121601 | 79 | 209 | 0.0 | 4.0 | 0.00 | 0.02 | 0.00 | 86 | 1012.1 |
| 20260902120059 | 80 | 182 | 0.0 | 5.0 | 0.00 | 0.02 | 0.00 | 88 | 1012.2 |
| 20260902114554 | 80 | 169 | 2.0 | 6.0 | 0.00 | 0.02 | 0.00 | 92 | 1012.3 |
| 20260902113052 | 80 | 230 | 1.0 | 6.0 | 0.00 | 0.02 | 0.00 | 92 | 1011.9 |
| 20260902111548 | 80 | 257 | 0.0 | 4.0 | 0.00 | 0.02 | 0.00 | 92 | 1011.8 |
| 20260902110046 | 80 | 259 | 0.0 | 4.0 | 0.00 | 0.02 | 0.00 | 92 | 1011.8 |
| 20260902104612 | 80 | 229 | 0.0 | 4.0 | 0.00 | 0.02 | 0.00 | 92 | 1011.9 |
| 20260902103044 | 80 | 260 | 0.0 | 3.0 | 0.00 | 0.02 | 0.00 | 91 | 1012.0 |
| 20260902101544 | 80 | 173 | 1.0 | 9.0 | 0.00 | 0.02 | 0.00 | 92 | 1011.8 |
| 20260902100105 | 80 | 171 | 1.0 | 5.0 | 0.00 | 0.02 | 0.00 | 91 | 1011.6 |
| 20260902094543 | 80 | 240 | 0.0 | 3.0 | 0.00 | 0.02 | 0.00 | 91 | 1011.6 |
| 20260902093042 | 80 | 175 | 1.0 | 5.0 | 0.00 | 0.02 | 0.00 | 91 | 1011.7 |
| 20260902091542 | 80 | 223 | 0.0 | 3.0 | 0.00 | 0.02 | 0.00 | 91 | 1011.5 |
| 20260902090043 | 80 | 187 | 0.0 | 3.0 | 0.00 | 0.02 | 0.00 | 91 | 1011.4 |
| 20260902084539 | 80 | 225 | 0.0 | 3.0 | 0.00 | 0.02 | 0.00 | 90 | 1011.5 |
| 20260902083041 | 80 | 226 | 0.0 | 4.0 | 0.00 | 0.02 | 0.00 | 90 | 1011.5 |
| 20260902081558 | 81 | 243 | 2.0 | 6.0 | 0.00 | 0.02 | 0.00 | 90 | 1011.5 |
| 20260902080046 | 81 | 219 | 0.0 | 7.0 | 0.00 | 0.02 | 0.00 | 90 | 1011.7 |
| 20260902074539 | 80 | 213 | 0.0 | 5.0 | 0.00 | 0.02 | 0.00 | 90 | 1011.7 |
| 20260902073036 | 81 | 182 | 1.0 | 4.0 | 0.00 | 0.02 | 0.00 | 90 | 1011.7 |
| 20260902071538 | 81 | 236 | 1.0 | 4.0 | 0.00 | 0.02 | 0.00 | 90 | 1011.8 |
| 20260902070037 | 81 | 213 | 0.0 | 5.0 | 0.00 | 0.02 | 0.00 | 90 | 1011.7 |
| 20260902064535 | 81 | 252 | 1.0 | 4.0 | 0.00 | 0.02 | 0.00 | 89 | 1011.7 |
| 20260902063040 | 81 | 192 | 2.0 | 9.0 | 0.00 | 0.02 | 0.00 | 89 | 1011.7 |
| 20260902061534 | 81 | 206 | 1.0 | 5.0 | 0.00 | 0.02 | 0.00 | 89 | 1011.7 |
| 20260902060036 | 81 | 202 | 1.0 | 5.0 | 0.00 | 0.02 | 0.00 | 89 | 1011.7 |
| 20260902054535 | 81 | 245 | 1.0 | 5.0 | 0.00 | 0.02 | 0.00 | 88 | 1011.5 |
| 20260902053031 | 81 | 231 | 0.0 | 5.0 | 0.00 | 0.02 | 0.00 | 88 | 1011.7 |
| 20260902051528 | 81 | 267 | 0.0 | 4.0 | 0.00 | 0.02 | 0.00 | 87 | 1011.8 |
| 20260902050026 | 81 | 243 | 0.0 | 6.0 | 0.00 | 0.02 | 0.00 | 87 | 1011.8 |
| 20260902044538 | 81 | 192 | 1.0 | 5.0 | 0.00 | 0.02 | 0.02 | 87 | 1011.8 |
| 20260902043025 | 81 | 209 | 0.0 | 3.0 | 0.00 | 0.02 | 0.02 | 86 | 1011.8 |
| 20260902041526 | 81 | 241 | 0.0 | 3.0 | 0.00 | 0.02 | 0.02 | 87 | 1011.8 |
| 20260902040025 | 80 | 228 | 0.0 | 2.0 | 0.00 | 0.02 | 0.02 | 87 | 1011.9 |
| 20260902034524 | 80 | 250 | 0.0 | 3.0 | 0.00 | 0.02 | 0.02 | 87 | 1011.9 |
| 20260902033023 | 80 | 252 | 0.0 | 3.0 | 0.00 | 0.02 | 0.02 | 87 | 1011.9 |
| 20260902031535 | 80 | 258 | 0.0 | 1.0 | 0.00 | 0.02 | 0.02 | 86 | 1011.7 |
| 20260902030022 | 80 | 258 | 0.0 | 1.0 | 0.00 | 0.02 | 0.02 | 86 | 1011.4 |
| 20260902024522 | 80 | 216 | 0.0 | 2.0 | 0.00 | 0.02 | 0.02 | 86 | 1011.2 |
| 20260902023022 | 80 | 265 | 0.0 | 2.0 | 0.00 | 0.02 | 0.02 | 86 | 1011.1 |
| 20260902021530 | 80 | 239 | 0.0 | 3.0 | 0.00 | 0.02 | 0.02 | 86 | 1010.8 |
| 20260902020020 | 81 | 258 | 0.0 | 3.0 | 0.00 | 0.02 | 0.02 | 85 | 1010.8 |
| 20260902014541 | 81 | 267 | 0.0 | 5.0 | 0.00 | 0.02 | 0.02 | 85 | 1010.6 |
| 20260902013018 | 81 | 244 | 1.0 | 3.0 | 0.00 | 0.02 | 0.02 | 85 | 1010.4 |
| 20260902011518 | 81 | 236 | 0.0 | 3.0 | 0.00 | 0.02 | 0.02 | 84 | 1010.2 |
| 20260902010020 | 82 | 246 | 0.0 | 4.0 | 0.00 | 0.02 | 0.02 | 83 | 1010.1 |
| 20260902004521 | 82 | 247 | 3.0 | 6.0 | 0.00 | 0.02 | 0.02 | 82 | 1010.3 |
| 20260902003015 | 82 | 278 | 2.0 | 6.0 | 0.00 | 0.02 | 0.02 | 82 | 1010.5 |
| 20260902001514 | 83 | 332 | 1.0 | 7.0 | 0.00 | 0.02 | 0.02 | 81 | 1010.6 |
| 20260902000018 | 83 | 325 | 3.0 | 8.0 | 0.00 | 0.02 | 0.02 | 81 | 1010.6 |
| 20260901234533 | 83 | 323 | 1.0 | 6.0 | 0.00 | 0.02 | 0.02 | 82 | 1010.5 |
| 20260901233013 | 83 | 322 | 2.0 | 9.0 | 0.00 | 0.02 | 0.02 | 82 | 1010.5 |
| 20260901231512 | 83 | 345 | 3.0 | 7.0 | 0.00 | 0.02 | 0.02 | 82 | 1010.6 |
| 20260901230014 | 83 | 315 | 2.0 | 7.0 | 0.00 | 0.02 | 0.02 | 84 | 1010.7 |
| 20260901224511 | 84 | 335 | 2.0 | 9.0 | 0.00 | 0.02 | 0.02 | 83 | 1011.0 |
| 20260901223012 | 84 | 319 | 3.0 | 10.0 | 0.00 | 0.02 | 0.02 | 82 | 1010.8 |
| 20260901221534 | 84 | 318 | 3.0 | 8.0 | 0.00 | 0.02 | 0.02 | 83 | 1010.8 |
| 20260901220013 | 84 | 278 | 3.0 | 9.0 | 0.00 | 0.02 | 0.02 | 83 | 1010.6 |
| 20260901214507 | 84 | 278 | 3.0 | 7.0 | 0.00 | 0.02 | 0.02 | 82 | 1010.9 |
| 20260901213005 | 84 | 300 | 3.0 | 8.0 | 0.00 | 0.02 | 0.02 | 81 | 1011.2 |
| 20260901211506 | 85 | 305 | 2.0 | 7.0 | 0.00 | 0.02 | 0.02 | 80 | 1011.4 |
| 20260901210009 | 84 | 252 | 2.0 | 7.0 | 0.00 | 0.06 | 0.02 | 81 | 1011.4 |
| 20260901204508 | 84 | 252 | 4.0 | 9.0 | 0.00 | 0.06 | 0.02 | 81 | 1011.2 |
| 20260901203004 | 84 | 308 | 4.0 | 9.0 | 0.00 | 0.06 | 0.02 | 82 | 1011.1 |
| 20260901201506 | 83 | 277 | 5.0 | 10.0 | 0.00 | 0.06 | 0.02 | 82 | 1011.2 |
| 20260901200100 | 83 | 263 | 3.0 | 8.0 | 0.01 | 0.06 | 0.02 | 82 | 1011.5 |
| 20260901194556 | 82 | 331 | 4.0 | 8.0 | 0.01 | 0.06 | 0.02 | 82 | 1012.0 |
| 20260901193106 | 82 | 261 | 4.0 | 8.0 | 0.01 | 0.06 | 0.02 | 83 | 1012.1 |
| 20260901191554 | 82 | 279 | 3.0 | 8.0 | 0.01 | 0.06 | 0.02 | 84 | 1012.2 |
| 20260901190054 | 83 | 311 | 2.0 | 4.0 | 0.00 | 0.05 | 0.01 | 83 | 1012.5 |
| 20260901184557 | 83 | 345 | 2.0 | 4.0 | 0.00 | 0.05 | 0.01 | 84 | 1012.7 |
| 20260901183056 | 83 | 307 | 2.0 | 6.0 | 0.00 | 0.05 | 0.01 | 83 | 1012.7 |
| 20260901181553 | 83 | 348 | 3.0 | 7.0 | 0.01 | 0.05 | 0.01 | 82 | 1012.8 |
| 20260901180052 | 83 | 340 | 4.0 | 9.0 | 0.01 | 0.05 | 0.01 | 83 | 1012.8 |
| 20260901174553 | 83 | 346 | 3.0 | 8.0 | 0.01 | 0.05 | 0.01 | 83 | 1013.0 |
| 20260901173050 | 83 | 293 | 2.0 | 5.0 | 0.01 | 0.05 | 0.01 | 83 | 1013.3 |
| 20260901171557 | 83 | 344 | 2.0 | 6.0 | 0.00 | 0.04 | 0.00 | 82 | 1013.6 |
| 20260901170050 | 84 | 352 | 1.0 | 7.0 | 0.00 | 0.04 | 0.00 | 81 | 1014.0 |
| 20260901164549 | 85 | 344 | 3.0 | 9.0 | 0.00 | 0.04 | 0.00 | 78 | 1014.0 |
| 20260901163050 | 85 | 352 | 2.0 | 8.0 | 0.00 | 0.04 | 0.00 | 78 | 1014.1 |
| 20260901161548 | 86 | 36 | 1.0 | 8.0 | 0.00 | 0.04 | 0.00 | 78 | 1014.1 |